Wautoma, WI

9:07 AM CST on December 16, 2017 (GMT -0600)
Wautoma

Weather History for KY50 - July, 2013

Change the Weather History Date:

Saturday, July 6, 2013

  Actual Average (KPCZ) Record (KPCZ)
Temperature  
Mean Temperature 72 °F -  
Max Temperature 88 °F 81 °F 98 °F (2012)
Min Temperature 56 °F 58 °F 41 °F (1967)
Cooling Degree Days 7    
Growing Degree Days 22 (Base 50)    
Moisture  
Dew Point 61 °F    
Average Humidity 69    
Maximum Humidity 100    
Minimum Humidity 40    
Precipitation  
Precipitation 0.00 in - - ()
Sea Level Pressure  
Sea Level Pressure 29.98 in    
Wind  
Wind Speed 4 mph (South)    
Max Wind Speed 13 mph    
Max Gust Speed 17 mph    
Visibility 9 miles    
Events      
Averages and records for this station are not official NWS values.
T = Trace of Precipitation, MM = Missing Value Source: NWS Daily Summary

Daily Weather History Graph

Daily Weather History Graph

Search for Another Location

Airport or City:

Trip Planner

Search our weather history database for the weather conditions in past years. The results will help you decide how hot, cold, wet, or windy it might be!

Date:

Astronomy

Jul. 06, 2013 Rise Set
Actual Time 5:21 AM CDT 8:42 PM CDT
Civil Twilight 4:45 AM CDT 9:18 PM CDT
Nautical Twilight 3:58 AM CDT 10:04 PM CDT
Astronomical Twilight 3:00 AM CDT 11:02 PM CDT
Moon 4:09 AM CDT (7/6) 7:21 PM CDT (7/6)
Length of Visible Light 16h 32m
Length of Day
15h 21m
Waning Crescent, 2% of the Moon is Illuminated
Jul 6
Waning Crescent
Jul 8
New
Jul 15
First Quarter
Jul 22
Full
Jul 29
Last Quarter

Hourly Weather History & Observations

Time (CDT) Temp. Heat Index Dew Point Humidity Pressure Visibility Wind Dir Wind Speed Gust Speed Precip Events Conditions
12:56 AM 66.9 °F - 61.9 °F 84% 30.00 in 10.0 mi SSE 3.5 mph - N/A   Overcast
1:56 AM 66.9 °F - 61.0 °F 81% 30.00 in 10.0 mi South 3.5 mph - N/A   Mostly Cloudy
2:56 AM 64.9 °F - 59.9 °F 84% 30.00 in 9.0 mi Calm Calm - N/A   Mostly Cloudy
3:56 AM 57.9 °F - 57.9 °F 100% 30.00 in 7.0 mi Calm Calm - N/A   Mostly Cloudy
4:20 AM 59.0 °F - 57.2 °F 94% 30.02 in 6.0 mi Calm Calm - N/A   Partly Cloudy
4:56 AM 57.9 °F - 56.8 °F 96% 30.01 in 5.0 mi Calm Calm - N/A   Partly Cloudy
5:56 AM 56.8 °F - 55.9 °F 97% 30.01 in 5.0 mi Calm Calm - N/A   Partly Cloudy
6:56 AM 61.9 °F - 59.9 °F 93% 30.01 in 6.0 mi Calm Calm - N/A   Partly Cloudy
7:22 AM 66.2 °F - 62.6 °F 88% 30.03 in 7.0 mi Calm Calm - N/A   Mostly Cloudy
7:56 AM 70.0 °F - 61.9 °F 75% 30.01 in 8.0 mi South 5.8 mph - N/A   Overcast
8:56 AM 75.9 °F - 63.0 °F 64% 30.00 in 9.0 mi SW 8.1 mph - N/A   Overcast
9:56 AM 79.0 °F - 63.9 °F 60% 30.00 in 10.0 mi South 6.9 mph - N/A   Overcast
10:56 AM 81.9 °F 83.5 °F 64.9 °F 56% 30.00 in 9.0 mi South 6.9 mph - N/A   Overcast
11:56 AM 83.8 °F 84.3 °F 61.9 °F 47% 29.99 in 10.0 mi South 10.4 mph - N/A   Overcast
12:56 PM 87.8 °F 87.6 °F 60.8 °F 40% 30.00 in 10.0 mi SSW 12.7 mph 17.3 mph N/A   Overcast
1:56 PM 86.9 °F 86.5 °F 59.9 °F 40% 29.97 in 10.0 mi SSW 9.2 mph - N/A   Overcast
2:56 PM 86.9 °F 86.5 °F 59.9 °F 40% 29.96 in 10.0 mi South 8.1 mph - N/A   Overcast
3:56 PM 86.9 °F 86.5 °F 59.9 °F 40% 29.96 in 10.0 mi South 8.1 mph - N/A   Overcast
4:56 PM 88.0 °F 87.9 °F 61.0 °F 40% 29.95 in 10.0 mi South 8.1 mph - N/A   Overcast
5:56 PM 86.0 °F 85.7 °F 59.9 °F 41% 29.94 in 10.0 mi South 9.2 mph - N/A   Overcast
6:56 PM 84.9 °F 85.4 °F 61.9 °F 46% 29.93 in 10.0 mi South 8.1 mph - N/A   Overcast
7:56 PM 81.0 °F 82.5 °F 63.9 °F 56% 29.92 in 10.0 mi South 5.8 mph - N/A   Overcast
8:56 PM 75.9 °F - 63.9 °F 66% 29.94 in 10.0 mi SSE 4.6 mph - N/A   Overcast
9:56 PM 72.9 °F - 63.9 °F 73% 29.95 in 10.0 mi South 4.6 mph - N/A   Overcast
10:56 PM 66.9 °F - 63.0 °F 87% 29.96 in 8.0 mi Calm Calm - N/A   Overcast
11:56 PM 64.9 °F - 63.0 °F 93% 29.96 in 7.0 mi Calm Calm - N/A   Overcast